Flag for U.S.A. Weather past 2 weeks in Brattleboro, Vermont, U.S.A.

Now
75 °F

Broken clouds.


Feels Like: 77 °F
Forecast: 58 / 76 °F
Wind: 3 mph from Southwest

Location: Keene / Dillant

Current Time: Sep 21, 2014 at 4:52:08 PM

Latest Report: Sep 21, 2014 at 4:15 PM


Visibility: 10 mi

Pressure: 29.70 "Hg

Humidity: 61%

Dew point: 61 °F

Location of BrattleboroLocation

Historic Weather in Brattleboro — Graph

°F

Brattleboro temperature yesterday

Maximum temperature yesterday: 70 °F (at 3:35 PM)
Minimum temperature yesterday: 36 °F (at 2:35 AM)
Average temperature yesterday: 51 °F

Past Weeks' High & Low Weather Summary

 TemperatureHumidityPressure
High77 °F (Sep 6, 3:15 PM)82% (Sep 16, 10:35 PM)30.41 "Hg (Sep 16, 10:35 PM)
Low34 °F (Sep 19, 6:15 AM)31% (Sep 19, 4:15 PM)29.72 "Hg (Sep 21, 3:35 PM)
Average56 °F64%30.14 "Hg
* Reported Sep 6 3:15 PM — Sep 21 3:35 PM, Brattleboro, Weather by CustomWeather, © 2014

Note: Actual official high and low records may vary slightly from our data, if they occured in-between our weather recording intervals... More about our weather records

Advertising

Brattleboro weather history for previous 24 hours

 ConditionsComfort  
Time TempWeatherWind HumidityBarometerVisibility
3:35 PM
Sep 21
73 °FBroken clouds.No wind65%29.72 "Hg10 mi
3:15 PM73 °FCloudy.8 mph65%29.73 "Hg10 mi
2:55 PM73 °FMostly cloudy.3 mph65%29.73 "Hg10 mi
2:35 PM73 °FMostly cloudy.5 mph65%29.75 "Hg10 mi
1:55 PM73 °FMostly cloudy.9 mph65%29.76 "Hg10 mi
1:35 PM73 °FMostly cloudy.9 mph65%29.78 "Hg10 mi
1:15 PM73 °FOvercast.12 mph65%29.80 "Hg10 mi
12:55 PM72 °FMostly cloudy.14 mph69%29.81 "Hg10 mi
12:35 PM72 °FMostly cloudy.12 mph69%29.83 "Hg9 mi
12:15 PM72 °FOvercast.7 mph65%29.84 "Hg10 mi
11:55 AM72 °FOvercast.8 mph65%29.85 "Hg10 mi
11:35 AM70 °FOvercast.10 mph69%29.86 "Hg10 mi
11:15 AM66 °FOvercast.No wind73%29.87 "Hg10 mi
10:55 AM66 °FOvercast.No wind73%29.88 "Hg10 mi
10:35 AM66 °FMore clouds than sun.5 mph73%29.89 "Hg10 mi
10:15 AM66 °FLow clouds.No wind73%29.90 "Hg10 mi
9:55 AM66 °FLow clouds.3 mph73%29.90 "Hg10 mi
9:35 AM66 °FLow clouds.5 mph73%29.91 "Hg10 mi
9:15 AM64 °FLow clouds.No wind73%29.91 "Hg5 mi
8:55 AM63 °FMostly cloudy.No wind77%29.93 "Hg2 mi
8:35 AM63 °FLow clouds.3 mph77%29.93 "Hg3 mi
7:55 AM63 °FLow clouds.No wind77%29.94 "Hg5 mi
7:35 AM63 °FLow clouds.5 mph77%29.94 "Hg3 mi
7:15 AM64 °FOvercast.5 mph73%29.94 "Hg5 mi
6:55 AM64 °FOvercast.7 mph73%29.93 "Hg10 mi
6:35 AM63 °FOvercast.6 mph77%29.94 "Hg10 mi
6:15 AM63 °FOvercast.No wind73%29.95 "Hg10 mi
5:55 AM64 °FOvercast.6 mph73%29.95 "Hg10 mi
5:35 AM64 °FOvercast.7 mph68%29.94 "Hg10 mi
5:15 AM63 °FMostly cloudy.9 mph73%29.95 "Hg10 mi
4:55 AM63 °FMostly cloudy.8 mph73%29.96 "Hg10 mi
4:35 AM63 °FOvercast.9 mph73%29.95 "Hg10 mi
4:15 AM63 °FOvercast.8 mph73%29.96 "Hg10 mi
3:55 AM63 °FOvercast.8 mph73%29.97 "Hg10 mi
3:35 AM63 °FOvercast.10 mph73%29.98 "Hg10 mi
3:15 AM63 °FMostly cloudy.9 mph73%29.99 "Hg10 mi
2:55 AM63 °FMostly cloudy.7 mph73%30.00 "Hg10 mi
2:35 AM63 °FOvercast.8 mph73%30.01 "Hg10 mi
1:55 AM63 °FOvercast.10 mph73%30.04 "Hg10 mi
1:35 AM63 °FOvercast.8 mph68%30.05 "Hg10 mi
1:15 AM63 °FOvercast.7 mph68%30.06 "Hg10 mi
12:55 AM61 °FOvercast.7 mph72%30.07 "Hg10 mi
12:35 AM59 °FOvercast.6 mph72%30.07 "Hg10 mi
12:15 AM57 °FOvercast.5 mph72%30.08 "Hg10 mi
11:55 PM
Sep 20
55 °FPassing clouds.No wind77%30.09 "Hg10 mi
11:35 PM55 °FPassing clouds.No wind77%30.09 "Hg9 mi
11:15 PM57 °FClear.No wind72%30.09 "Hg10 mi
10:55 PM57 °FClear.No wind72%30.09 "Hg10 mi
10:35 PM59 °FClear.No wind68%30.09 "Hg10 mi
10:15 PM61 °FClear.6 mph63%30.08 "Hg10 mi
9:55 PM61 °FClear.5 mph63%30.09 "Hg10 mi
9:35 PM61 °FClear.3 mph63%30.09 "Hg10 mi
9:15 PM61 °FClear.6 mph68%30.10 "Hg10 mi
8:55 PM61 °FPassing clouds.7 mph68%30.11 "Hg10 mi
8:35 PM63 °FPassing clouds.7 mph64%30.11 "Hg10 mi
8:15 PM63 °FClear.8 mph64%30.10 "Hg10 mi
7:55 PM63 °FPassing clouds.9 mph64%30.10 "Hg10 mi
7:35 PM64 °FPartly sunny.6 mph60%30.10 "Hg10 mi
7:15 PM64 °FOvercast.5 mph64%30.11 "Hg10 mi
6:55 PM64 °FOvercast.3 mph64%30.11 "Hg10 mi
6:35 PM64 °FOvercast.8 mph64%30.11 "Hg10 mi
6:15 PM66 °FPartly sunny.9 mph60%30.11 "Hg10 mi
5:55 PM66 °FPartly sunny.9 mph60%30.11 "Hg10 mi
5:35 PM68 °FOvercast.10 mph56%30.11 "Hg10 mi
4:55 PM68 °FMostly cloudy.12 mph56%30.12 "Hg10 mi
4:35 PM70 °FMostly cloudy.12 mph53%30.12 "Hg10 mi
4:15 PM70 °FPartly sunny.10 mph53%30.13 "Hg10 mi
Weather by CustomWeather, © 2014

See weather overviewHow to use our weather pages